{"data":{"norad_id":55366,"intl_designator":"2023-013AM","name":"STARLINK-5654","alt_names":[],"object_type":"PAYLOAD","status":"ACTIVE","operator":null,"country":"US","launch_date":"2023-01-26","launch_site_code":"AFETR","launch_vehicle":null,"mission":null,"orbit_class":"UNKNOWN","rcs_meters":null,"size_class":null,"mass_kg":null,"dimensions":null,"purposes":["comms"],"wikipedia_slug":null,"has_3d_model":false,"image_url":null,"decayed_at":null,"tle_current":{"epoch":"2026-05-24T21:56:18.423168Z","epoch_age_seconds":89248,"freshness":"FRESH","line1":"1 55366U 23013AM  26144.91410212 -.00000466  00000+0 -74017-5 0  9992","line2":"2 55366  42.9982 217.9955 0001069 281.2709  78.8023 15.27574491183504","mean_motion":15.27574491,"eccentricity":0.0001069,"inclination_deg":42.9982,"raan_deg":217.9955,"arg_perigee_deg":281.2709,"mean_anomaly_deg":78.8023,"bstar":-7.4017e-6,"rev_number":18350,"period_min":94.267088674499,"perigee_km":482.33212945999,"apogee_km":483.79905457417,"semimajor_km":6861.2025920171,"source":"CELESTRAK","updated_at":"2026-05-25T13:38:17.766727Z"}}}